Time,TemperatureF,DewpointF,PressureIn,WindDirection,WindDirectionDegrees,WindSpeedMPH,WindSpeedGustMPH,Humidity,HourlyPrecipIn,Conditions,Clouds,dailyrainin,SoftwareType,DateUTC
2013-04-23 00:01:00,33.3,27.7,30.67,NNE,22,1.6,2.7,80,0.00,,,0.00,WUHU21623XXSP,2013-04-23 04:01:00,
2013-04-23 00:06:00,33.3,27.7,30.68,NE,45,0.0,2.7,80,0.00,,,0.00,WUHU21623XXSP,2013-04-23 04:06:00,
2013-04-23 00:11:00,33.1,27.6,30.67,NE,45,0.0,0.0,80,0.00,,,0.00,WUHU21623XXSP,2013-04-23 04:11:00,
2013-04-23 00:16:00,33.3,27.7,30.67,ENE,67,0.0,0.0,80,0.00,,,0.00,WUHU21623XXSP,2013-04-23 04:16:00,
2013-04-23 00:21:00,33.4,27.9,30.67,ENE,67,0.0,0.0,80,0.00,,,0.00,WUHU21623XXSP,2013-04-23 04:21:00,
2013-04-23 00:26:00,33.6,28.1,30.67,ENE,67,0.0,0.0,80,0.00,,,0.00,WUHU21623XXSP,2013-04-23 04:26:00,
2013-04-23 00:31:00,33.6,28.1,30.67,NE,45,0.0,0.0,80,0.00,,,0.00,WUHU21623XXSP,2013-04-23 04:31:00,
2013-04-23 00:36:00,33.6,27.7,30.67,West,270,0.0,0.0,79,0.00,,,0.00,WUHU21623XXSP,2013-04-23 04:36:00,
2013-04-23 00:41:00,33.4,27.6,30.67,NE,45,0.0,0.0,79,0.00,,,0.00,WUHU21623XXSP,2013-04-23 04:41:00,
2013-04-23 00:46:00,33.1,27.2,30.67,NE,45,0.0,0.0,79,0.00,,,0.00,WUHU21623XXSP,2013-04-23 04:46:00,
2013-04-23 00:51:00,32.9,27.4,30.67,NE,45,0.0,0.0,80,0.00,,,0.00,WUHU21623XXSP,2013-04-23 04:51:00,
2013-04-23 00:56:00,32.7,27.5,30.66,NE,45,0.0,0.0,81,0.00,,,0.00,WUHU21623XXSP,2013-04-23 04:56:00,
2013-04-23 01:01:00,32.5,27.4,30.66,NE,45,0.0,0.0,81,0.00,,,0.00,WUHU21623XXSP,2013-04-23 05:01:00,
2013-04-23 01:06:00,32.2,27.3,30.66,NE,45,0.0,0.0,82,0.00,,,0.00,WUHU21623XXSP,2013-04-23 05:06:00,
2013-04-23 01:11:00,31.8,27.0,30.66,NE,45,0.0,0.0,82,0.00,,,0.00,WUHU21623XXSP,2013-04-23 05:11:00,
2013-04-23 01:16:00,31.8,27.3,30.66,NE,45,0.0,0.0,83,0.00,,,0.00,WUHU21623XXSP,2013-04-23 05:16:00,
2013-04-23 01:21:00,31.6,27.1,30.66,NE,45,0.0,0.0,83,0.00,,,0.00,WUHU21623XXSP,2013-04-23 05:21:00,
2013-04-23 01:26:00,31.6,27.1,30.66,NE,45,0.0,1.8,83,0.00,,,0.00,WUHU21623XXSP,2013-04-23 05:26:00,
2013-04-23 01:31:00,31.3,27.0,30.66,NE,45,0.0,1.8,84,0.00,,,0.00,WUHU21623XXSP,2013-04-23 05:31:00,
2013-04-23 01:36:00,31.1,26.9,30.65,NE,45,0.0,0.0,84,0.00,,,0.00,WUHU21623XXSP,2013-04-23 05:36:00,
2013-04-23 01:41:00,30.9,26.7,30.65,NE,45,0.0,0.0,84,0.00,,,0.00,WUHU21623XXSP,2013-04-23 05:41:00,
2013-04-23 01:46:00,30.7,26.5,30.65,NE,45,0.0,0.0,84,0.00,,,0.00,WUHU21623XXSP,2013-04-23 05:46:00,
2013-04-23 01:51:00,30.7,26.5,30.65,NE,45,0.0,0.0,84,0.00,,,0.00,WUHU21623XXSP,2013-04-23 05:51:00,
2013-04-23 01:56:00,30.7,26.8,30.64,NE,45,0.0,0.0,85,0.00,,,0.00,WUHU21623XXSP,2013-04-23 05:56:00,
2013-04-23 02:01:00,30.2,26.0,30.64,NE,45,0.0,0.0,84,0.00,,,0.00,WUHU21623XXSP,2013-04-23 06:01:00,
2013-04-23 02:06:00,30.0,26.1,30.64,NE,45,0.0,0.0,85,0.00,,,0.00,WUHU21623XXSP,2013-04-23 06:06:00,
2013-04-23 02:11:00,30.0,26.1,30.64,NE,45,0.0,0.0,85,0.00,,,0.00,WUHU21623XXSP,2013-04-23 06:11:00,
2013-04-23 02:16:00,30.0,26.1,30.63,NE,45,0.0,0.0,85,0.00,,,0.00,WUHU21623XXSP,2013-04-23 06:16:00,
2013-04-23 02:21:00,30.0,26.1,30.64,NE,45,0.0,0.0,85,0.00,,,0.00,WUHU21623XXSP,2013-04-23 06:21:00,
2013-04-23 02:26:00,29.8,25.9,30.63,NE,45,0.0,0.0,85,0.00,,,0.00,WUHU21623XXSP,2013-04-23 06:26:00,
2013-04-23 02:31:00,29.8,25.9,30.63,NE,45,0.0,0.0,85,0.00,,,0.00,WUHU21623XXSP,2013-04-23 06:31:00,
2013-04-23 02:36:00,29.8,26.2,30.63,NE,45,0.0,0.0,86,0.00,,,0.00,WUHU21623XXSP,2013-04-23 06:36:00,
2013-04-23 02:41:00,29.7,26.0,30.63,NE,45,0.0,0.0,86,0.00,,,0.00,WUHU21623XXSP,2013-04-23 06:41:00,
2013-04-23 02:46:00,29.7,26.0,30.63,NE,45,0.0,0.0,86,0.00,,,0.00,WUHU21623XXSP,2013-04-23 06:46:00,
2013-04-23 02:51:00,29.8,26.2,30.63,NE,45,0.0,0.0,86,0.00,,,0.00,WUHU21623XXSP,2013-04-23 06:51:00,
2013-04-23 02:56:00,29.8,26.2,30.62,NE,45,0.0,0.0,86,0.00,,,0.00,WUHU21623XXSP,2013-04-23 06:56:00,
2013-04-23 03:01:00,29.8,26.2,30.62,NE,45,0.0,0.0,86,0.00,,,0.00,WUHU21623XXSP,2013-04-23 07:01:00,
2013-04-23 03:06:00,29.8,26.2,30.62,NE,45,0.0,0.0,86,0.00,,,0.00,WUHU21623XXSP,2013-04-23 07:06:00,
2013-04-23 03:11:00,29.8,26.2,30.62,NE,45,0.0,0.0,86,0.00,,,0.00,WUHU21623XXSP,2013-04-23 07:11:00,
2013-04-23 03:16:00,30.0,26.3,30.62,NE,45,0.0,0.0,86,0.00,,,0.00,WUHU21623XXSP,2013-04-23 07:16:00,
2013-04-23 03:21:00,30.2,26.5,30.62,NE,45,0.0,0.0,86,0.00,,,0.00,WUHU21623XXSP,2013-04-23 07:21:00,
2013-04-23 03:26:00,30.6,26.9,30.62,NE,45,0.0,0.0,86,0.00,,,0.00,WUHU21623XXSP,2013-04-23 07:26:00,
2013-04-23 03:31:00,30.7,27.1,30.62,NE,45,0.0,0.0,86,0.00,,,0.00,WUHU21623XXSP,2013-04-23 07:31:00,
2013-04-23 03:36:00,30.7,27.1,30.62,NE,45,0.0,0.0,86,0.00,,,0.00,WUHU21623XXSP,2013-04-23 07:36:00,
2013-04-23 03:41:00,30.9,27.2,30.61,NE,45,0.0,0.0,86,0.00,,,0.00,WUHU21623XXSP,2013-04-23 07:41:00,
2013-04-23 03:46:00,30.9,27.2,30.62,NE,45,0.0,0.0,86,0.00,,,0.00,WUHU21623XXSP,2013-04-23 07:46:00,
2013-04-23 03:51:00,31.3,27.6,30.61,NE,45,0.0,0.0,86,0.00,,,0.00,WUHU21623XXSP,2013-04-23 07:51:00,
2013-04-23 03:56:00,31.3,27.3,30.61,NE,45,0.0,0.0,85,0.00,,,0.00,WUHU21623XXSP,2013-04-23 07:56:00,
2013-04-23 04:01:00,30.9,27.0,30.61,NE,45,0.0,0.0,85,0.00,,,0.00,WUHU21623XXSP,2013-04-23 08:01:00,
2013-04-23 04:06:00,30.9,27.0,30.60,NE,45,0.0,0.0,85,0.00,,,0.00,WUHU21623XXSP,2013-04-23 08:06:00,
2013-04-23 04:11:00,30.9,27.0,30.60,NE,45,0.0,0.0,85,0.00,,,0.00,WUHU21623XXSP,2013-04-23 08:11:00,
2013-04-23 04:16:00,30.9,27.0,30.60,NE,45,0.0,0.0,85,0.00,,,0.00,WUHU21623XXSP,2013-04-23 08:16:00,
2013-04-23 04:21:00,30.9,27.0,30.60,NE,45,0.0,0.0,85,0.00,,,0.00,WUHU21623XXSP,2013-04-23 08:21:00,
2013-04-23 04:26:00,30.9,27.0,30.60,NE,45,0.0,0.0,85,0.00,,,0.00,WUHU21623XXSP,2013-04-23 08:26:00,
2013-04-23 04:31:00,31.1,27.1,30.60,NE,45,0.0,0.0,85,0.00,,,0.00,WUHU21623XXSP,2013-04-23 08:31:00,
2013-04-23 04:36:00,31.1,26.9,30.60,NE,45,0.0,0.0,84,0.00,,,0.00,WUHU21623XXSP,2013-04-23 08:36:00,
2013-04-23 04:41:00,31.1,26.9,30.59,NE,45,0.0,0.0,84,0.00,,,0.00,WUHU21623XXSP,2013-04-23 08:41:00,
2013-04-23 04:46:00,31.1,26.9,30.60,NE,45,0.0,0.0,84,0.00,,,0.00,WUHU21623XXSP,2013-04-23 08:46:00,
2013-04-23 04:51:00,31.3,27.3,30.60,NE,45,0.0,0.0,85,0.00,,,0.00,WUHU21623XXSP,2013-04-23 08:51:00,
2013-04-23 04:56:00,31.3,27.0,30.60,NE,45,0.0,0.0,84,0.00,,,0.00,WUHU21623XXSP,2013-04-23 08:56:00,
2013-04-23 05:01:00,31.3,27.0,30.60,NE,45,0.0,0.0,84,0.00,,,0.00,WUHU21623XXSP,2013-04-23 09:01:00,
2013-04-23 05:06:00,31.3,27.0,30.59,NE,45,0.0,0.0,84,0.00,,,0.00,WUHU21623XXSP,2013-04-23 09:06:00,
2013-04-23 05:11:00,31.3,27.0,30.59,North,0,0.0,0.0,84,0.00,,,0.00,WUHU21623XXSP,2013-04-23 09:11:00,
2013-04-23 05:16:00,31.1,26.9,30.59,WNW,292,0.0,1.3,84,0.00,,,0.00,WUHU21623XXSP,2013-04-23 09:16:00,
2013-04-23 05:21:00,31.3,27.0,30.59,WNW,292,0.0,1.3,84,0.00,,,0.00,WUHU21623XXSP,2013-04-23 09:21:00,
2013-04-23 05:26:00,31.3,27.0,30.60,WNW,292,0.0,0.0,84,0.00,,,0.00,WUHU21623XXSP,2013-04-23 09:26:00,
2013-04-23 05:31:00,31.3,27.0,30.59,WNW,292,0.0,0.0,84,0.00,,,0.00,WUHU21623XXSP,2013-04-23 09:31:00,
2013-04-23 05:36:00,31.3,27.0,30.59,WNW,292,0.0,0.0,84,0.00,,,0.00,WUHU21623XXSP,2013-04-23 09:36:00,
2013-04-23 05:41:00,31.3,27.0,30.59,WNW,292,0.0,0.0,84,0.00,,,0.00,WUHU21623XXSP,2013-04-23 09:41:00,
2013-04-23 05:46:00,31.3,27.0,30.59,WNW,292,0.0,0.0,84,0.00,,,0.00,WUHU21623XXSP,2013-04-23 09:46:00,
2013-04-23 05:51:00,31.6,27.4,30.59,WNW,292,0.0,0.0,84,0.00,,,0.00,WUHU21623XXSP,2013-04-23 09:51:00,
2013-04-23 05:56:00,31.5,27.2,30.59,WNW,292,0.0,0.0,84,0.00,,,0.00,WUHU21623XXSP,2013-04-23 09:56:00,
2013-04-23 06:01:00,31.6,27.4,30.59,WNW,292,0.0,0.0,84,0.00,,,0.00,WUHU21623XXSP,2013-04-23 10:01:00,
2013-04-23 06:06:00,31.3,26.7,30.59,WNW,292,0.0,0.0,83,0.00,,,0.00,WUHU21623XXSP,2013-04-23 10:06:00,
2013-04-23 06:11:00,31.6,27.4,30.59,WNW,292,0.0,0.0,84,0.00,,,0.00,WUHU21623XXSP,2013-04-23 10:11:00,
2013-04-23 06:16:00,31.6,27.1,30.59,WNW,292,0.0,0.0,83,0.00,,,0.00,WUHU21623XXSP,2013-04-23 10:16:00,
2013-04-23 06:21:00,31.8,27.3,30.59,WNW,292,0.0,0.0,83,0.00,,,0.00,WUHU21623XXSP,2013-04-23 10:21:00,
2013-04-23 06:26:00,31.6,27.1,30.59,WNW,292,0.0,0.0,83,0.00,,,0.00,WUHU21623XXSP,2013-04-23 10:26:00,
2013-04-23 06:31:00,31.6,27.1,30.59,WNW,292,0.0,0.0,83,0.00,,,0.00,WUHU21623XXSP,2013-04-23 10:31:00,
2013-04-23 06:36:00,32.0,27.5,30.59,WNW,292,0.0,0.0,83,0.00,,,0.00,WUHU21623XXSP,2013-04-23 10:36:00,
2013-04-23 06:41:00,31.8,27.0,30.59,WNW,292,0.0,0.0,82,0.00,,,0.00,WUHU21623XXSP,2013-04-23 10:41:00,
2013-04-23 06:46:00,31.8,27.0,30.59,WNW,292,0.0,0.0,82,0.00,,,0.00,WUHU21623XXSP,2013-04-23 10:46:00,
2013-04-23 06:51:00,31.8,27.0,30.59,West,270,0.0,0.0,82,0.00,,,0.00,WUHU21623XXSP,2013-04-23 10:51:00,
2013-04-23 06:56:00,31.8,27.0,30.59,West,270,0.0,0.0,82,0.00,,,0.00,WUHU21623XXSP,2013-04-23 10:56:00,
2013-04-23 07:01:00,31.8,27.0,30.59,West,270,0.0,0.0,82,0.00,,,0.00,WUHU21623XXSP,2013-04-23 11:01:00,
2013-04-23 07:06:00,32.2,27.3,30.58,West,270,0.0,0.0,82,0.00,,,0.00,WUHU21623XXSP,2013-04-23 11:06:00,
2013-04-23 07:11:00,32.2,27.3,30.59,West,270,0.0,0.0,82,0.00,,,0.00,WUHU21623XXSP,2013-04-23 11:11:00,
2013-04-23 07:16:00,32.2,27.3,30.59,NNW,337,0.0,0.0,82,0.00,,,0.00,WUHU21623XXSP,2013-04-23 11:16:00,
2013-04-23 07:21:00,32.2,27.3,30.59,NE,45,0.0,1.3,82,0.00,,,0.00,WUHU21623XXSP,2013-04-23 11:21:00,
2013-04-23 07:26:00,32.2,27.3,30.59,NE,45,0.0,1.3,82,0.00,,,0.00,WUHU21623XXSP,2013-04-23 11:26:00,
2013-04-23 07:31:00,32.4,27.5,30.59,ENE,67,0.0,0.0,82,0.00,,,0.00,WUHU21623XXSP,2013-04-23 11:31:00,
2013-04-23 07:36:00,32.4,27.2,30.59,NE,45,0.0,0.0,81,0.00,,,0.00,WUHU21623XXSP,2013-04-23 11:36:00,
2013-04-23 07:41:00,32.5,27.4,30.59,NE,45,0.0,0.0,81,0.00,,,0.00,WUHU21623XXSP,2013-04-23 11:41:00,
2013-04-23 07:46:00,32.7,27.5,30.59,NE,45,0.0,0.0,81,0.00,,,0.00,WUHU21623XXSP,2013-04-23 11:46:00,
2013-04-23 07:51:00,32.7,27.5,30.59,NE,45,0.0,0.0,81,0.00,,,0.00,WUHU21623XXSP,2013-04-23 11:51:00,
2013-04-23 07:56:00,32.9,27.7,30.59,NE,45,0.0,0.0,81,0.00,,,0.00,WUHU21623XXSP,2013-04-23 11:56:00,
2013-04-23 08:01:00,33.4,28.2,30.59,NE,45,0.0,0.0,81,0.00,,,0.00,WUHU21623XXSP,2013-04-23 12:01:00,
2013-04-23 08:06:00,33.4,28.2,30.59,ENE,67,0.0,0.0,81,0.00,,,0.00,WUHU21623XXSP,2013-04-23 12:06:00,
2013-04-23 08:11:00,33.4,27.9,30.59,ENE,67,0.0,2.0,80,0.00,,,0.00,WUHU21623XXSP,2013-04-23 12:11:00,
2013-04-23 08:16:00,33.4,27.9,30.58,NNE,22,0.0,2.0,80,0.00,,,0.00,WUHU21623XXSP,2013-04-23 12:16:00,
2013-04-23 08:21:00,33.6,27.7,30.58,NNE,22,0.0,0.0,79,0.00,,,0.00,WUHU21623XXSP,2013-04-23 12:21:00,
2013-04-23 08:26:00,33.6,27.7,30.59,NNE,22,0.0,0.0,79,0.00,,,0.00,WUHU21623XXSP,2013-04-23 12:26:00,
2013-04-23 08:31:00,33.6,27.7,30.58,NNE,22,0.0,2.7,79,0.00,,,0.00,WUHU21623XXSP,2013-04-23 12:31:00,
2013-04-23 08:36:00,33.6,27.7,30.58,NNE,22,0.0,2.7,79,0.00,,,0.00,WUHU21623XXSP,2013-04-23 12:36:00,
2013-04-23 08:41:00,33.6,27.7,30.58,NNE,22,0.0,2.2,79,0.00,,,0.00,WUHU21623XXSP,2013-04-23 12:41:00,
2013-04-23 08:46:00,33.6,28.1,30.58,NE,45,0.0,5.8,80,0.00,,,0.00,WUHU21623XXSP,2013-04-23 12:46:00,
2013-04-23 08:51:00,33.6,27.7,30.58,NE,45,0.0,5.8,79,0.00,,,0.00,WUHU21623XXSP,2013-04-23 12:51:00,
2013-04-23 08:56:00,33.6,27.7,30.57,NE,45,0.0,3.4,79,0.00,,,0.00,WUHU21623XXSP,2013-04-23 12:56:00,
2013-04-23 09:01:00,33.6,28.1,30.58,ENE,67,0.0,1.8,80,0.00,,,0.00,WUHU21623XXSP,2013-04-23 13:01:00,
2013-04-23 09:06:00,33.8,28.2,30.57,NE,45,0.0,1.8,80,0.00,,,0.00,WUHU21623XXSP,2013-04-23 13:06:00,
2013-04-23 09:11:00,34.0,28.4,30.57,NE,45,0.0,0.0,80,0.00,,,0.00,WUHU21623XXSP,2013-04-23 13:11:00,
2013-04-23 09:16:00,34.3,28.8,30.57,ENE,67,0.0,0.0,80,0.00,,,0.00,WUHU21623XXSP,2013-04-23 13:16:00,
2013-04-23 09:21:00,34.2,28.6,30.57,NNE,22,0.0,4.3,80,0.00,,,0.00,WUHU21623XXSP,2013-04-23 13:21:00,
2013-04-23 09:26:00,33.8,28.2,30.57,NE,45,0.0,4.3,80,0.00,,,0.00,WUHU21623XXSP,2013-04-23 13:26:00,
2013-04-23 09:31:00,34.0,28.7,30.57,NE,45,0.0,0.0,81,0.00,,,0.00,WUHU21623XXSP,2013-04-23 13:31:00,
2013-04-23 09:36:00,34.0,28.7,30.57,NE,45,0.0,5.6,81,0.00,,,0.00,WUHU21623XXSP,2013-04-23 13:36:00,
2013-04-23 09:41:00,33.8,28.5,30.56,NE,45,0.0,5.6,81,0.00,,,0.00,WUHU21623XXSP,2013-04-23 13:41:00,
2013-04-23 09:46:00,34.2,29.0,30.56,NNE,22,0.0,0.0,82,0.00,,,0.00,WUHU21623XXSP,2013-04-23 13:46:00,
2013-04-23 09:51:00,34.3,29.3,30.56,WNW,292,0.0,0.7,82,0.00,,,0.00,WUHU21623XXSP,2013-04-23 13:51:00,
2013-04-23 09:56:00,34.3,29.3,30.56,NW,315,0.0,0.7,82,0.00,,,0.00,WUHU21623XXSP,2013-04-23 13:56:00,
2013-04-23 10:01:00,34.0,29.0,30.56,WNW,292,0.0,0.0,82,0.00,,,0.00,WUHU21623XXSP,2013-04-23 14:01:00,
2013-04-23 10:06:00,34.2,29.4,30.55,WNW,292,0.0,0.0,83,0.00,,,0.00,WUHU21623XXSP,2013-04-23 14:06:00,
2013-04-23 10:11:00,34.3,29.6,30.56,NW,315,0.0,0.0,83,0.00,,,0.00,WUHU21623XXSP,2013-04-23 14:11:00,
2013-04-23 10:16:00,34.3,29.6,30.55,NW,315,0.0,0.0,83,0.00,,,0.00,WUHU21623XXSP,2013-04-23 14:16:00,
2013-04-23 10:21:00,34.2,29.7,30.55,NW,315,0.0,1.3,84,0.00,,,0.00,WUHU21623XXSP,2013-04-23 14:21:00,
2013-04-23 10:26:00,34.3,29.9,30.55,North,0,0.0,1.3,84,0.00,,,0.00,WUHU21623XXSP,2013-04-23 14:26:00,
2013-04-23 10:31:00,34.5,30.4,30.55,North,0,0.0,0.0,85,0.00,,,0.00,WUHU21623XXSP,2013-04-23 14:31:00,
2013-04-23 10:36:00,34.5,30.4,30.55,NNW,337,0.0,0.0,85,0.00,,,0.00,WUHU21623XXSP,2013-04-23 14:36:00,
2013-04-23 10:41:00,34.3,30.2,30.55,NNW,337,0.0,0.0,85,0.00,,,0.00,WUHU21623XXSP,2013-04-23 14:41:00,
2013-04-23 10:46:00,34.3,30.2,30.55,NNW,337,0.0,0.0,85,0.00,,,0.00,WUHU21623XXSP,2013-04-23 14:46:00,
2013-04-23 10:51:00,34.3,30.5,30.54,NNW,337,0.0,0.0,86,0.00,,,0.00,WUHU21623XXSP,2013-04-23 14:51:00,
2013-04-23 10:56:00,34.2,30.3,30.55,NNW,337,0.0,0.0,86,0.00,,,0.00,WUHU21623XXSP,2013-04-23 14:56:00,
2013-04-23 11:01:00,34.3,30.5,30.55,NNW,337,0.0,0.0,86,0.00,,,0.00,WUHU21623XXSP,2013-04-23 15:01:00,
2013-04-23 11:06:00,34.3,30.8,30.55,NNW,337,0.0,0.0,87,0.00,,,0.00,WUHU21623XXSP,2013-04-23 15:06:00,
2013-04-23 11:11:00,34.3,30.8,30.54,WNW,292,0.0,1.6,87,0.00,,,0.00,WUHU21623XXSP,2013-04-23 15:11:00,
2013-04-23 11:15:00,34.3,30.8,30.54,ENE,67,0.0,1.8,87,0.00,,,0.00,WUHU21623XXSP,2013-04-23 15:15:00,
2013-04-23 11:20:00,34.3,30.8,30.54,NE,45,0.0,1.8,87,0.00,,,0.00,WUHU21623XXSP,2013-04-23 15:20:00,
2013-04-23 11:25:00,34.3,30.8,30.54,NE,45,0.0,0.0,87,0.00,,,0.00,WUHU21623XXSP,2013-04-23 15:25:00,
2013-04-23 11:30:00,34.3,30.8,30.54,NNE,22,0.0,0.0,87,0.00,,,0.00,WUHU21623XXSP,2013-04-23 15:30:00,
2013-04-23 11:35:00,34.3,30.8,30.54,NE,45,0.0,2.5,87,0.00,,,0.00,WUHU21623XXSP,2013-04-23 15:35:00,
2013-04-23 11:40:00,34.3,30.8,30.54,NE,45,0.0,2.5,87,0.00,,,0.00,WUHU21623XXSP,2013-04-23 15:40:00,
2013-04-23 11:45:00,34.3,30.8,30.54,NE,45,0.0,1.8,87,0.00,,,0.00,WUHU21623XXSP,2013-04-23 15:45:00,
2013-04-23 11:50:00,34.3,30.8,30.54,WNW,292,0.0,0.0,87,0.00,,,0.00,WUHU21623XXSP,2013-04-23 15:50:00,
2013-04-23 11:55:00,34.3,31.1,30.54,NE,45,0.0,0.7,88,0.00,,,0.00,WUHU21623XXSP,2013-04-23 15:55:00,
2013-04-23 12:00:00,34.3,31.1,30.53,NE,45,0.0,6.7,88,0.00,,,0.00,WUHU21623XXSP,2013-04-23 16:00:00,
2013-04-23 12:05:00,34.3,31.1,30.53,NE,45,0.0,6.7,88,0.00,,,0.00,WUHU21623XXSP,2013-04-23 16:05:00,
2013-04-23 12:10:00,34.3,31.1,30.52,NE,45,0.0,0.0,88,0.00,,,0.00,WUHU21623XXSP,2013-04-23 16:10:00,
2013-04-23 12:15:00,34.9,31.6,30.52,NE,45,0.0,0.0,88,0.00,,,0.00,WUHU21623XXSP,2013-04-23 16:15:00,
2013-04-23 12:20:00,35.1,31.8,30.52,ENE,67,0.0,1.8,88,0.00,,,0.00,WUHU21623XXSP,2013-04-23 16:20:00,
2013-04-23 12:25:00,34.7,31.4,30.51,ESE,112,0.0,1.8,88,0.00,,,0.00,WUHU21623XXSP,2013-04-23 16:25:00,
2013-04-23 12:30:00,34.7,31.4,30.51,ESE,112,0.0,0.0,88,0.00,,,0.00,WUHU21623XXSP,2013-04-23 16:30:00,
2013-04-23 12:35:00,34.7,31.4,30.51,NE,45,0.0,1.6,88,0.00,,,0.00,WUHU21623XXSP,2013-04-23 16:35:00,
2013-04-23 12:40:00,34.5,31.2,30.51,NNE,22,0.0,1.6,88,0.00,,,0.00,WUHU21623XXSP,2013-04-23 16:40:00,
2013-04-23 12:45:00,34.5,31.2,30.51,NE,45,0.0,0.0,88,0.00,,,0.00,WUHU21623XXSP,2013-04-23 16:45:00,
2013-04-23 12:50:00,34.9,31.9,30.51,NNE,22,0.0,1.6,89,0.00,,,0.00,WUHU21623XXSP,2013-04-23 16:50:00,
2013-04-23 12:55:00,34.9,31.9,30.51,NW,315,0.0,3.1,89,0.00,,,0.00,WUHU21623XXSP,2013-04-23 16:55:00,
2013-04-23 13:00:00,35.1,32.1,30.51,NW,315,0.0,3.1,89,0.00,,,0.00,WUHU21623XXSP,2013-04-23 17:00:00,
2013-04-23 13:05:00,35.4,32.4,30.51,NW,315,0.0,0.0,89,0.00,,,0.00,WUHU21623XXSP,2013-04-23 17:05:00,
2013-04-23 13:10:00,35.4,32.4,30.50,NW,315,0.0,0.0,89,0.00,,,0.00,WUHU21623XXSP,2013-04-23 17:10:00,
2013-04-23 13:15:00,35.1,32.1,30.50,ENE,67,0.0,4.5,89,0.00,,,0.00,WUHU21623XXSP,2013-04-23 17:15:00,
2013-04-23 13:20:00,35.2,32.3,30.49,NE,45,0.0,4.5,89,0.00,,,0.00,WUHU21623XXSP,2013-04-23 17:20:00,
2013-04-23 13:25:00,35.2,32.3,30.49,NE,45,0.0,2.9,89,0.00,,,0.00,WUHU21623XXSP,2013-04-23 17:25:00,
2013-04-23 13:30:00,35.2,32.3,30.49,NE,45,0.0,2.9,89,0.00,,,0.00,WUHU21623XXSP,2013-04-23 17:30:00,
2013-04-23 13:35:00,34.9,31.9,30.49,ESE,112,0.0,0.0,89,0.00,,,0.00,WUHU21623XXSP,2013-04-23 17:35:00,
2013-04-23 13:40:00,35.2,32.3,30.49,East,90,0.0,0.0,89,0.00,,,0.00,WUHU21623XXSP,2013-04-23 17:40:00,
2013-04-23 13:45:00,35.4,32.4,30.48,ENE,67,0.0,0.0,89,0.00,,,0.00,WUHU21623XXSP,2013-04-23 17:45:00,
2013-04-23 13:50:00,35.4,32.4,30.49,ENE,67,0.0,0.0,89,0.00,,,0.00,WUHU21623XXSP,2013-04-23 17:50:00,
2013-04-23 13:55:00,35.4,32.4,30.49,ENE,67,0.0,0.0,89,0.00,,,0.00,WUHU21623XXSP,2013-04-23 17:55:00,
2013-04-23 14:00:00,35.8,32.8,30.48,ENE,67,0.0,1.1,89,0.00,,,0.00,WUHU21623XXSP,2013-04-23 18:00:00,
2013-04-23 14:05:00,35.6,32.6,30.48,NE,45,0.0,2.5,89,0.00,,,0.00,WUHU21623XXSP,2013-04-23 18:05:00,
2013-04-23 14:10:00,35.4,32.4,30.48,East,90,0.0,2.5,89,0.00,,,0.00,WUHU21623XXSP,2013-04-23 18:10:00,
2013-04-23 14:15:00,35.6,32.6,30.47,ENE,67,0.0,0.0,89,0.00,,,0.00,WUHU21623XXSP,2013-04-23 18:15:00,
2013-04-23 14:20:00,35.8,32.8,30.48,ENE,67,0.0,0.0,89,0.00,,,0.00,WUHU21623XXSP,2013-04-23 18:20:00,
2013-04-23 14:25:00,36.0,33.0,30.47,NE,45,4.7,4.7,89,0.00,,,0.00,WUHU21623XXSP,2013-04-23 18:25:00,
2013-04-23 14:30:00,35.8,32.8,30.47,East,90,0.0,4.7,89,0.00,,,0.00,WUHU21623XXSP,2013-04-23 18:30:00,
2013-04-23 14:35:00,35.8,32.8,30.47,East,90,0.0,2.9,89,0.00,,,0.00,WUHU21623XXSP,2013-04-23 18:35:00,
2013-04-23 14:40:00,35.8,32.8,30.46,East,90,0.0,0.0,89,0.00,,,0.00,WUHU21623XXSP,2013-04-23 18:40:00,
2013-04-23 14:45:00,35.8,32.8,30.46,NE,45,0.0,3.8,89,0.00,,,0.00,WUHU21623XXSP,2013-04-23 18:45:00,
2013-04-23 14:50:00,36.0,33.0,30.46,North,0,0.0,3.8,89,0.00,,,0.00,WUHU21623XXSP,2013-04-23 18:50:00,
2013-04-23 14:55:00,36.0,33.0,30.46,ESE,112,0.0,0.0,89,0.00,,,0.00,WUHU21623XXSP,2013-04-23 18:55:00,
2013-04-23 15:00:00,36.0,33.0,30.46,NE,45,0.0,0.0,89,0.00,,,0.00,WUHU21623XXSP,2013-04-23 19:00:00,
2013-04-23 15:05:00,36.0,33.0,30.46,NE,45,0.0,0.0,89,0.00,,,0.00,WUHU21623XXSP,2013-04-23 19:05:00,
2013-04-23 15:10:00,36.0,33.0,30.46,NE,45,0.0,0.0,89,0.00,,,0.00,WUHU21623XXSP,2013-04-23 19:10:00,
2013-04-23 15:15:00,36.1,33.2,30.46,NE,45,0.0,0.0,89,0.00,,,0.00,WUHU21623XXSP,2013-04-23 19:15:00,
2013-04-23 15:20:00,36.0,33.0,30.45,NE,45,0.0,0.0,89,0.00,,,0.00,WUHU21623XXSP,2013-04-23 19:20:00,
2013-04-23 15:25:00,36.1,33.2,30.45,North,0,0.0,0.0,89,0.00,,,0.00,WUHU21623XXSP,2013-04-23 19:25:00,
2013-04-23 15:30:00,36.1,33.2,30.45,NNE,22,0.0,0.0,89,0.00,,,0.00,WUHU21623XXSP,2013-04-23 19:30:00,
2013-04-23 15:35:00,36.3,33.3,30.44,NNE,22,0.0,0.0,89,0.00,,,0.00,WUHU21623XXSP,2013-04-23 19:35:00,
2013-04-23 15:40:00,36.7,33.7,30.44,NNE,22,0.0,0.0,89,0.00,,,0.00,WUHU21623XXSP,2013-04-23 19:40:00,
2013-04-23 15:45:00,37.0,34.1,30.45,East,90,0.0,0.0,89,0.00,,,0.00,WUHU21623XXSP,2013-04-23 19:45:00,
2013-04-23 15:53:00,36.7,33.7,30.44,East,90,0.0,0.0,89,0.00,,,0.00,WUHU21623XXSP,2013-04-23 19:53:00,
2013-04-23 15:58:00,36.5,33.5,30.44,East,90,0.0,0.0,89,0.00,,,0.00,WUHU21623XXSP,2013-04-23 19:58:00,
2013-04-23 16:03:00,36.3,33.3,30.44,North,0,0.0,1.1,89,0.00,,,0.00,WUHU21623XXSP,2013-04-23 20:03:00,
2013-04-23 16:08:00,36.3,33.3,30.44,North,0,0.0,1.1,89,0.00,,,0.00,WUHU21623XXSP,2013-04-23 20:08:00,
2013-04-23 16:13:00,36.5,33.5,30.44,North,0,0.0,0.0,89,0.00,,,0.00,WUHU21623XXSP,2013-04-23 20:13:00,
2013-04-23 16:18:00,36.5,33.5,30.44,NW,315,0.0,0.0,89,0.00,,,0.00,WUHU21623XXSP,2013-04-23 20:18:00,
2013-04-23 16:23:00,36.5,33.5,30.44,NE,45,0.0,0.0,89,0.00,,,0.00,WUHU21623XXSP,2013-04-23 20:23:00,
2013-04-23 16:28:00,36.5,33.2,30.43,NE,45,1.3,2.7,88,0.00,,,0.00,WUHU21623XXSP,2013-04-23 20:28:00,
2013-04-23 16:33:00,36.9,33.9,30.43,NE,45,0.0,2.7,89,0.00,,,0.00,WUHU21623XXSP,2013-04-23 20:33:00,
2013-04-23 16:38:00,37.2,34.2,30.43,NE,45,0.0,0.0,89,0.00,,,0.00,WUHU21623XXSP,2013-04-23 20:38:00,
2013-04-23 16:43:00,36.7,33.4,30.43,NE,45,0.0,0.0,88,0.00,,,0.00,WUHU21623XXSP,2013-04-23 20:43:00,
2013-04-23 16:48:00,36.7,33.4,30.42,NE,45,0.0,0.0,88,0.00,,,0.00,WUHU21623XXSP,2013-04-23 20:48:00,
2013-04-23 16:53:00,36.3,33.0,30.42,NE,45,0.0,0.0,88,0.00,,,0.00,WUHU21623XXSP,2013-04-23 20:53:00,
2013-04-23 16:58:00,36.3,33.0,30.42,NE,45,0.0,0.0,88,0.00,,,0.00,WUHU21623XXSP,2013-04-23 20:58:00,
2013-04-23 17:03:00,36.3,33.0,30.42,NE,45,0.0,0.0,88,0.00,,,0.00,WUHU21623XXSP,2013-04-23 21:03:00,
2013-04-23 17:08:00,36.5,33.2,30.42,NE,45,0.0,0.0,88,0.00,,,0.00,WUHU21623XXSP,2013-04-23 21:08:00,
2013-04-23 17:13:00,36.7,33.4,30.42,NE,45,0.0,0.0,88,0.00,,,0.00,WUHU21623XXSP,2013-04-23 21:13:00,
2013-04-23 17:18:00,36.7,33.4,30.42,SSW,202,0.0,2.5,88,0.00,,,0.00,WUHU21623XXSP,2013-04-23 21:18:00,
2013-04-23 17:23:00,36.5,33.2,30.42,ENE,67,0.0,2.5,88,0.00,,,0.00,WUHU21623XXSP,2013-04-23 21:23:00,
2013-04-23 17:28:00,36.9,33.9,30.42,ESE,112,0.0,1.1,89,0.00,,,0.00,WUHU21623XXSP,2013-04-23 21:28:00,
2013-04-23 17:33:00,36.9,33.9,30.42,ESE,112,0.0,1.1,89,0.00,,,0.00,WUHU21623XXSP,2013-04-23 21:33:00,
2013-04-23 17:38:00,36.9,33.9,30.41,WSW,247,0.0,0.0,89,0.00,,,0.00,WUHU21623XXSP,2013-04-23 21:38:00,
2013-04-23 17:43:00,37.0,34.1,30.41,West,270,0.0,0.0,89,0.00,,,0.00,WUHU21623XXSP,2013-04-23 21:43:00,
2013-04-23 17:48:00,36.7,33.7,30.41,WNW,292,0.0,0.0,89,0.00,,,0.00,WUHU21623XXSP,2013-04-23 21:48:00,
2013-04-23 17:53:00,36.9,33.9,30.41,West,270,0.0,0.0,89,0.00,,,0.00,WUHU21623XXSP,2013-04-23 21:53:00,
2013-04-23 17:58:00,36.7,33.7,30.41,West,270,0.0,0.0,89,0.00,,,0.00,WUHU21623XXSP,2013-04-23 21:58:00,
2013-04-23 18:03:00,36.7,33.4,30.40,West,270,0.0,0.0,89,0.00,,,0.00,WUHU21623XXSP,2013-04-23 22:03:00,
2013-04-23 18:08:00,36.7,33.7,30.41,West,270,0.0,0.0,89,0.00,,,0.00,WUHU21623XXSP,2013-04-23 22:08:00,
2013-04-23 18:13:00,36.7,33.7,30.41,West,270,0.0,0.0,89,0.00,,,0.00,WUHU21623XXSP,2013-04-23 22:13:00,
2013-04-23 18:18:00,36.5,33.5,30.40,NE,45,0.0,0.0,89,0.00,,,0.00,WUHU21623XXSP,2013-04-23 22:18:00,
2013-04-23 18:23:00,36.7,33.7,30.40,NE,45,0.0,0.0,89,0.00,,,0.00,WUHU21623XXSP,2013-04-23 22:23:00,
2013-04-23 18:28:00,36.5,33.5,30.40,NNE,22,0.0,0.0,89,0.00,,,0.00,WUHU21623XXSP,2013-04-23 22:28:00,
2013-04-23 18:33:00,36.3,33.3,30.39,NNE,22,0.0,0.0,89,0.00,,,0.00,WUHU21623XXSP,2013-04-23 22:33:00,
2013-04-23 18:38:00,36.3,33.3,30.39,NNE,22,0.0,0.0,89,0.00,,,0.00,WUHU21623XXSP,2013-04-23 22:38:00,
2013-04-23 18:43:00,36.1,33.2,30.38,NNE,22,0.0,0.0,89,0.00,,,0.00,WUHU21623XXSP,2013-04-23 22:43:00,
2013-04-23 18:48:00,36.1,33.2,30.38,NNE,22,0.0,0.0,89,0.00,,,0.00,WUHU21623XXSP,2013-04-23 22:48:00,
2013-04-23 18:53:00,36.3,33.3,30.38,NNE,22,0.0,0.0,89,0.00,,,0.00,WUHU21623XXSP,2013-04-23 22:53:00,
2013-04-23 18:58:00,36.3,33.3,30.39,NNE,22,0.0,0.0,89,0.00,,,0.00,WUHU21623XXSP,2013-04-23 22:58:00,
2013-04-23 19:03:00,36.1,33.2,30.39,NNE,22,0.0,0.0,89,0.00,,,0.00,WUHU21623XXSP,2013-04-23 23:03:00,
2013-04-23 19:08:00,36.1,33.2,30.38,NNE,22,0.0,0.0,89,0.00,,,0.00,WUHU21623XXSP,2013-04-23 23:08:00,
2013-04-23 19:13:00,36.0,33.0,30.38,NNE,22,0.0,0.0,89,0.00,,,0.00,WUHU21623XXSP,2013-04-23 23:13:00,
2013-04-23 19:18:00,36.0,33.0,30.38,NNE,22,0.0,0.0,89,0.00,,,0.00,WUHU21623XXSP,2013-04-23 23:18:00,
2013-04-23 19:23:00,36.0,33.0,30.38,NNE,22,0.0,0.0,89,0.00,,,0.00,WUHU21623XXSP,2013-04-23 23:23:00,
2013-04-23 19:28:00,36.0,33.0,30.38,NNE,22,0.0,0.0,89,0.00,,,0.00,WUHU21623XXSP,2013-04-23 23:28:00,
2013-04-23 19:33:00,36.3,33.6,30.38,NNE,22,0.0,0.7,90,0.00,,,0.00,WUHU21623XXSP,2013-04-23 23:33:00,
2013-04-23 19:38:00,36.1,33.4,30.37,NNE,22,0.0,0.7,90,0.00,,,0.00,WUHU21623XXSP,2013-04-23 23:38:00,
2013-04-23 19:43:00,36.0,33.3,30.37,NNE,22,0.0,0.0,90,0.00,,,0.00,WUHU21623XXSP,2013-04-23 23:43:00,
2013-04-23 19:48:00,36.1,33.4,30.37,WNW,292,0.0,0.0,90,0.00,,,0.00,WUHU21623XXSP,2013-04-23 23:48:00,
2013-04-23 19:53:00,36.0,33.3,30.37,WNW,292,0.0,0.0,90,0.00,,,0.00,WUHU21623XXSP,2013-04-23 23:53:00,
2013-04-23 19:58:00,36.0,33.3,30.37,WNW,292,0.0,0.0,90,0.00,,,0.00,WUHU21623XXSP,2013-04-23 23:58:00,
2013-04-23 20:03:00,36.0,33.3,30.37,WNW,292,0.0,0.0,90,0.00,,,0.00,WUHU21623XXSP,2013-04-24 00:03:00,
2013-04-23 20:08:00,36.0,33.3,30.37,WNW,292,0.0,0.0,90,0.00,,,0.00,WUHU21623XXSP,2013-04-24 00:08:00,
2013-04-23 20:13:00,36.1,33.4,30.37,WNW,292,0.0,0.0,90,0.00,,,0.00,WUHU21623XXSP,2013-04-24 00:13:00,
2013-04-23 20:18:00,36.1,33.4,30.36,WNW,292,0.0,0.0,90,0.00,,,0.00,WUHU21623XXSP,2013-04-24 00:18:00,
2013-04-23 20:23:00,36.3,33.6,30.36,WNW,292,0.0,0.0,90,0.00,,,0.00,WUHU21623XXSP,2013-04-24 00:23:00,
2013-04-23 20:28:00,36.3,33.6,30.36,WNW,292,0.0,0.0,90,0.00,,,0.00,WUHU21623XXSP,2013-04-24 00:28:00,
2013-04-23 20:33:00,36.9,34.2,30.36,WNW,292,0.0,0.0,90,0.00,,,0.00,WUHU21623XXSP,2013-04-24 00:33:00,
2013-04-23 20:38:00,36.7,34.0,30.36,WNW,292,0.0,0.0,90,0.00,,,0.00,WUHU21623XXSP,2013-04-24 00:38:00,
2013-04-23 20:43:00,36.7,34.0,30.36,WNW,292,0.0,0.0,90,0.00,,,0.00,WUHU21623XXSP,2013-04-24 00:43:00,
2013-04-23 20:48:00,36.5,33.8,30.35,WNW,292,0.0,0.0,90,0.00,,,0.00,WUHU21623XXSP,2013-04-24 00:48:00,
2013-04-23 20:53:00,36.3,33.6,30.35,WNW,292,0.0,0.0,90,0.00,,,0.00,WUHU21623XXSP,2013-04-24 00:53:00,
2013-04-23 20:58:00,36.3,33.6,30.35,WNW,292,0.0,0.0,90,0.00,,,0.00,WUHU21623XXSP,2013-04-24 00:58:00,
2013-04-23 21:03:00,36.3,33.6,30.36,WNW,292,0.0,0.0,90,0.00,,,0.00,WUHU21623XXSP,2013-04-24 01:03:00,
2013-04-23 21:08:00,36.3,33.6,30.36,WNW,292,0.0,0.0,90,0.00,,,0.00,WUHU21623XXSP,2013-04-24 01:08:00,
2013-04-23 21:13:00,36.3,33.6,30.36,WNW,292,0.0,0.0,90,0.00,,,0.00,WUHU21623XXSP,2013-04-24 01:13:00,
2013-04-23 21:18:00,36.3,33.6,30.35,WNW,292,0.0,0.0,90,0.00,,,0.00,WUHU21623XXSP,2013-04-24 01:18:00,
2013-04-23 21:23:00,36.3,33.6,30.36,WNW,292,0.0,0.0,90,0.00,,,0.00,WUHU21623XXSP,2013-04-24 01:23:00,
2013-04-23 21:28:00,36.3,33.6,30.35,WNW,292,0.0,0.0,90,0.00,,,0.00,WUHU21623XXSP,2013-04-24 01:28:00,
2013-04-23 21:33:00,36.3,33.6,30.35,WNW,292,0.0,0.0,90,0.00,,,0.00,WUHU21623XXSP,2013-04-24 01:33:00,
2013-04-23 21:38:00,36.3,33.6,30.35,WNW,292,0.0,0.0,90,0.00,,,0.00,WUHU21623XXSP,2013-04-24 01:38:00,
2013-04-23 21:43:00,36.3,33.6,30.35,WNW,292,0.0,0.0,90,0.00,,,0.00,WUHU21623XXSP,2013-04-24 01:43:00,
2013-04-23 21:48:00,37.2,34.8,30.35,WNW,292,0.0,0.0,91,0.00,,,0.00,WUHU21623XXSP,2013-04-24 01:48:00,
2013-04-23 21:53:00,36.9,34.4,30.35,WNW,292,0.0,0.0,91,0.00,,,0.00,WUHU21623XXSP,2013-04-24 01:53:00,
2013-04-23 21:58:00,36.3,33.6,30.36,WNW,292,0.0,0.0,90,0.00,,,0.00,WUHU21623XXSP,2013-04-24 01:58:00,
2013-04-23 22:03:00,36.3,33.6,30.35,WNW,292,0.0,0.0,90,0.00,,,0.00,WUHU21623XXSP,2013-04-24 02:03:00,
2013-04-23 22:08:00,36.3,33.6,30.35,WNW,292,0.0,0.0,90,0.00,,,0.00,WUHU21623XXSP,2013-04-24 02:08:00,
2013-04-23 22:14:00,36.3,33.6,30.35,WNW,292,0.0,0.0,90,0.00,,,0.00,WUHU21623XXSP,2013-04-24 02:14:00,
2013-04-23 22:20:00,36.7,34.3,30.35,WNW,292,0.0,0.0,91,0.00,,,0.00,WUHU21623XXSP,2013-04-24 02:20:00,
2013-04-23 22:25:00,36.5,33.8,30.34,WNW,292,0.0,0.0,90,0.00,,,0.00,WUHU21623XXSP,2013-04-24 02:25:00,
2013-04-23 22:30:00,36.5,33.8,30.33,WNW,292,0.0,0.0,90,0.00,,,0.00,WUHU21623XXSP,2013-04-24 02:30:00,
2013-04-23 22:35:00,36.5,33.8,30.33,WNW,292,0.0,0.0,90,0.00,,,0.00,WUHU21623XXSP,2013-04-24 02:35:00,
2013-04-23 22:40:00,36.5,33.8,30.32,WNW,292,0.0,0.0,90,0.00,,,0.00,WUHU21623XXSP,2013-04-24 02:40:00,
2013-04-23 22:45:00,36.7,34.3,30.32,WNW,292,0.0,0.0,91,0.00,,,0.00,WUHU21623XXSP,2013-04-24 02:45:00,
2013-04-23 22:50:00,36.7,34.3,30.32,WNW,292,0.0,0.0,91,0.00,,,0.00,WUHU21623XXSP,2013-04-24 02:50:00,
2013-04-23 22:55:00,36.9,34.4,30.31,WNW,292,0.0,0.0,91,0.00,,,0.00,WUHU21623XXSP,2013-04-24 02:55:00,
2013-04-23 23:00:00,36.7,34.3,30.30,WNW,292,0.0,0.0,91,0.00,,,0.00,WUHU21623XXSP,2013-04-24 03:00:00,
2013-04-23 23:07:00,36.7,34.3,30.31,WNW,292,0.0,0.0,91,0.00,,,0.00,WUHU21623XXSP,2013-04-24 03:07:00,
2013-04-23 23:12:00,37.2,34.8,30.30,WNW,292,0.0,0.0,91,0.00,,,0.00,WUHU21623XXSP,2013-04-24 03:12:00,
2013-04-23 23:17:00,37.2,34.8,30.29,WNW,292,0.0,0.0,91,0.00,,,0.00,WUHU21623XXSP,2013-04-24 03:17:00,
2013-04-23 23:22:00,37.2,34.8,30.28,WNW,292,0.0,0.0,91,0.00,,,0.00,WUHU21623XXSP,2013-04-24 03:22:00,
2013-04-23 23:28:00,37.0,34.6,30.28,WNW,292,0.0,0.0,91,0.00,,,0.00,WUHU21623XXSP,2013-04-24 03:28:00,
2013-04-23 23:33:00,36.7,34.3,30.28,WNW,292,0.0,0.0,91,0.00,,,0.00,WUHU21623XXSP,2013-04-24 03:33:00,
2013-04-23 23:38:00,36.5,33.8,30.28,WNW,292,0.0,0.0,90,0.00,,,0.00,WUHU21623XXSP,2013-04-24 03:38:00,
2013-04-23 23:43:00,36.7,34.3,30.27,WNW,292,0.0,0.0,91,0.00,,,0.00,WUHU21623XXSP,2013-04-24 03:43:00,
2013-04-23 23:48:00,36.7,34.3,30.27,WNW,292,0.0,0.0,91,0.00,,,0.00,WUHU21623XXSP,2013-04-24 03:48:00,
2013-04-23 23:53:00,36.5,33.8,30.26,WNW,292,0.0,0.0,90,0.00,,,0.00,WUHU21623XXSP,2013-04-24 03:53:00,
2013-04-23 23:58:00,36.5,33.8,30.26,WNW,292,0.0,0.0,90,0.00,,,0.00,WUHU21623XXSP,2013-04-24 03:58:00,